Regional Weather Roundup
Issued by NWS

Home | Current Version | Previous Version | Text Only | Print | Product List | Glossary Off
Versions: 1 2 3 4 5 6 7 8 9 10 11 12 13 14 15 16 17 18 19 20 21 22 23 24 25 26 27 28 29 30 31 32 33 34 35 36 37 38 39 40 41 42 43 44 45 46 47 48 49 50

000
ASUS43 KMKX 280211
RWRWI

WISCONSIN REGIONAL WEATHER ROUNDUP
NATIONAL WEATHER SERVICE MILWAUKEE/SULLIVAN WI
900 PM CDT THU APR 27 2017

NOTE: "FAIR" INDICATES FEW OR NO CLOUDS BELOW 12,000 FEET WITH NO
SIGNIFICANT WEATHER AND/OR OBSTRUCTIONS TO VISIBILITY.

WIZ001-002-006>008-014>016-023>028-280300-
NORTHWEST WISCONSIN

CITY           SKY/WX    TMP DP  RH WIND       PRES   REMARKS
SUPERIOR ARPT  CLOUDY    31  23  71 W10       29.66R WCI  22
ASHLAND        CLOUDY    29  24  82 SW8       29.64R WCI  21
HAYWARD        CLOUDY    29  22  75 SW8       29.66R WCI  21
SIREN          CLOUDY    30  26  83 W9        29.70R WCI  22
CUMBERLAND     CLOUDY    30  25  80 W9        29.69R WCI  22
RICE LAKE      CLOUDY    31  25  78 W12       29.71R WCI  22
CHETEK         CLOUDY    31  24  74 W6        29.70R WCI  25
LADYSMITH      CLOUDY    31  26  81 W10       29.69R WCI  22
EAU CLAIRE     CLOUDY    33  25  72 W14       29.71R WCI  23
MENOMONIE      CLOUDY    33  25  72 W13       29.72R WCI  24
NEW RICHMOND   MIX PCPN  31  24  74 W8        29.72R WCI  24
OSCEOLA        CLOUDY    32  25  75 W8        29.75R WCI  25
$$

WIZ003>005-009-010-017-018-280300-
NORTH CENTRAL WISCONSIN

CITY           SKY/WX    TMP DP  RH WIND       PRES   REMARKS
MANITOWISH WTR CLOUDY    26  26  97 W13       29.60R WCI  15
ARBOR VITAE    MIX PCPN  29  27  90 W10G16    29.60R WCI  20
WOODRUFF       MIX PCPN  29  27  90 W10G16    29.60R WCI  20
RHINELANDER    FRZ RAIN  30  28  92 W12       29.63R FOG     WCI  20
EAGLE RIVER    MIX PCPN  28  25  86 W8        29.60R WCI  20
LAND O LAKES   MIX PCPN  28  25  89 W9        29.60R WCI  19
PHILLIPS       CLOUDY    27  26  96 W7        29.63R WCI  20
TOMAHAWK       CLOUDY    29  25  88 W7        29.65R WCI  21
MEDFORD        CLOUDY    29  28  93 W8        29.65R WCI  21
MERRILL        CLOUDY    31  28  89 W8        29.66R WCI  23
$$

WIZ029-030-035-036-043>047-280300-
CENTRAL WISCONSIN

CITY           SKY/WX    TMP DP  RH WIND       PRES   REMARKS
WAUSAU         CLOUDY    32  28  85 W12       29.66R WCI  23
MOSINEE        CLOUDY    32  30  93 W10G17    29.68R WCI  24
MARSHFIELD     CLOUDY    33  29  85 W7        29.67R FOG     WCI  27
STEVENS POINT  CLOUDY    33  30  91 W8        29.69R WCI  25
WAUPACA        CLOUDY    39  34  81 SW10G16   29.69R WCI  33
WAUTOMA        CLOUDY    38  34  85 W10       29.71R WCI  31
WISC RAPIDS    CLOUDY    36  32  85 W8        29.70R WCI  30
CAMP DOUGLAS   MIX PCPN  36  32  87 W14       29.72R WCI  27
$$

WIZ011>013-019>022-031-037>040-048>050-280300-
NORTHEAST WISCONSIN

CITY           SKY/WX    TMP DP  RH WIND       PRES   REMARKS
ANTIGO         CLOUDY    30  28  92 W16       29.64R WCI  19
SHAWANO        CLOUDY    38  32  79 W12       29.67R WCI  30
OCONTO         CLOUDY    38  32  79 W9        29.67R WCI  31
STURGEON BAY   CLOUDY    39  33  79 W9        29.67R WCI  33
GREEN BAY      CLOUDY    41  36  82 SW9       29.67R
MANITOWOC      CLOUDY    41  36  82 SW12      29.69R
APPLETON       DRIZZLE   37  34  87 W15       29.67R WCI  28
CLINTONVILLE   CLOUDY    36  32  87 W9        29.67R WCI  29
OSHKOSH        CLOUDY    40  35  83 VRB6      29.69R
$$

WIZ032>034-041-042-053>061-280300-
SOUTHWEST WISCONSIN

CITY           SKY/WX    TMP DP  RH WIND       PRES   REMARKS
LA CROSSE      CLOUDY    39  30  70 W13       29.74R WCI  31
SPARTA         CLOUDY    37  32  84 W10G16    29.73R WCI  29
VIROQUA        CLOUDY    35  32  89 W9        29.72R WCI  28
BOSCOBEL       CLOUDY    41  30  65 SW8       29.76R
PRAIRIE DU CHI CLOUDY    40  29  67 W9        29.77R WCI  33
PLATTEVILLE    CLOUDY    39  32  77 W9G18     29.78R WCI  33
$$

WIZ056-057-062-063-064-067-068-280300-
SOUTH CENTRAL WISCONSIN

CITY           SKY/WX    TMP DP  RH WIND       PRES   REMARKS
REEDSBURG      CLOUDY    38  33  81 SW7       29.71  WCI  33
BARABOO/DELLS  CLOUDY    38  32  79 W10G17    29.72R WCI  30
LONE ROCK      CLOUDY    40  30  67 W12       29.75R WCI  33
MINERAL POINT  CLOUDY    37  32  81 W13       29.76R WCI  29
MADISON        CLOUDY    40  31  70 W8G18     29.73R WCI  34
MIDDLETON      CLOUDY    40  32  71 SW13G18   29.74R WCI  33
WATERTOWN      CLOUDY    40  35  81 SW14      29.73R WCI  32
MONROE         CLOUDY    39  32  75 SW14      29.76R WCI  31
JANESVILLE     CLOUDY    43  34  70 W9        29.76R
$$

WIZ051-052-058>065-066-070>072-280300-
SOUTHEAST WISCONSIN

CITY           SKY/WX    TMP DP  RH WIND       PRES   REMARKS
MILWAUKEE      CLOUDY    44  34  67 SW10G24   29.75R
WAUKESHA       CLOUDY    39  32  75 SW13      29.74R WCI  32
MILWAUKEE/TIMM CLOUDY    43  32  65 W13G22    29.74R
RACINE         CLOUDY    44  32  62 W17G24    29.77R
KENOSHA        CLOUDY    43  33  68 SW17G26   29.76R
FOND DU LAC    CLOUDY    42  33  70 SW13G20   29.70R
SHEBOYGAN      CLOUDY    42  38  85 W7        29.70R
WEST BEND      CLOUDY    39  36  87 W10G18    29.71R WCI  32
JUNEAU         CLOUDY    38  35  87 SW10      29.73R WCI  32
$$

LSZ147-162-280300-
LAKE SUPERIOR

STATION/POSITION TIME  TEMP    WIND        PRES    WAVE
                       AIR SEA DIR/SP/G            HT/PER
                 (UTC) (F)     (DEG/KT/KT) (MB)    (FT/S)
DEVILS ISLAND    0100   31     280/ 18/ 21 1002.9R
PORT WING        0030   32     290/ 14/ 20 1002.7R
SAXON HARBOR     0030   30     210/  5/  8 1002.7R
$$

LMZ867-665-643>646-280300-
LAKE MICHIGAN

STATION/POSITION TIME  TEMP    WIND        PRES    WAVE
                       AIR SEA DIR/SP/G            HT/PER
                 (UTC) (F)     (DEG/KT/KT) (MB)    (FT/S)
CHAMBERS ISLAND  0040   38     210/  6/ 11 1002.7R
N MID LAKE BUOY  0050   37 37  230/ 16/ 19 1004.0R   4/ 6
NORTHPORT PIER   0040   37      CALM  /  7 1003.4R
KEWAUNEE LAKESHO 0142   42     230/  5/  9 1004.5
SHEBOYGAN LAKESH 0100   42     240/  7/  8 1005.1R
PORT WASHINGTON  0040   45     250/  9/ 17 1006.1R
MILWAUKEE LAKESH 0150   44     240/ 15/ 19   N/A
S MID LAKE BUOY  0050   42 41  270/ 14/ 17 1007.2R   3/ 5
KENOSHA   LAKESH 0100   44     250/ 14/ 18 1007.1
$$

TC  - TEMPERATURE IN CELSIUS
VSB - VISIBILITY IN STATUTE MILES
WCI - WIND CHILL INDEX
HX  - HEAT INDEX




USA.gov is the U.S. government's official web portal to all federal, state and local government web resources and services.